TimeCST,TemperatureF,Dew PointF,Humidity,Sea Level PressureIn,VisibilityMPH,Wind Direction,Wind SpeedMPH,Gust SpeedMPH,PrecipitationIn,Events,Conditions,WindDirDegrees,DateUTC
12:50 AM,50.0,39.2,66,30.05,10.0,ENE,5.8,-,N/A,,Overcast,60,2013-11-05 06:50:00
12:53 AM,50.0,39.0,66,30.04,10.0,NE,6.9,-,N/A,,Overcast,50,2013-11-05 06:53:00
1:53 AM,50.0,39.0,66,30.03,10.0,East,6.9,-,N/A,,Overcast,80,2013-11-05 07:53:00
2:53 AM,50.0,41.0,71,30.02,10.0,East,6.9,-,N/A,,Overcast,80,2013-11-05 08:53:00
3:16 AM,50.0,41.0,71,30.02,10.0,ENE,4.6,-,N/A,,Overcast,60,2013-11-05 09:16:00
3:53 AM,51.1,42.1,71,30.00,10.0,ENE,6.9,-,N/A,,Overcast,70,2013-11-05 09:53:00
4:24 AM,51.8,44.6,76,30.00,10.0,East,5.8,-,N/A,,Overcast,100,2013-11-05 10:24:00
4:53 AM,53.1,46.9,80,29.99,10.0,ESE,8.1,-,N/A,,Overcast,110,2013-11-05 10:53:00
5:24 AM,53.6,51.8,94,29.98,4.0,SE,11.5,-,0.00,Rain,Light Rain,130,2013-11-05 11:24:00
5:37 AM,53.6,51.8,94,29.98,2.5,SE,11.5,-,0.00,Rain,Light Rain,130,2013-11-05 11:37:00
5:53 AM,55.0,53.1,93,29.97,2.0,ESE,10.4,-,0.00,Rain,Light Rain,120,2013-11-05 11:53:00
6:20 AM,55.4,53.6,94,29.96,4.0,SE,11.5,-,0.02,Rain,Light Rain,130,2013-11-05 12:20:00
6:35 AM,55.4,53.6,94,29.96,4.0,SE,10.4,-,0.02,,Overcast,130,2013-11-05 12:35:00
6:53 AM,55.9,54.0,93,29.95,3.0,SE,11.5,-,0.03,Rain,Light Rain,130,2013-11-05 12:53:00
7:04 AM,55.4,53.6,94,29.95,4.0,SE,10.4,-,0.00,Rain,Light Rain,130,2013-11-05 13:04:00
7:31 AM,55.4,53.6,94,29.94,2.5,SE,12.7,-,0.01,,Overcast,140,2013-11-05 13:31:00
7:39 AM,55.4,53.6,94,29.94,2.5,SE,10.4,-,0.01,,Overcast,140,2013-11-05 13:39:00
7:53 AM,57.0,54.0,89,29.93,4.0,SE,10.4,-,0.01,,Overcast,140,2013-11-05 13:53:00
8:53 AM,57.0,55.0,93,29.93,4.0,SE,13.8,-,N/A,,Overcast,140,2013-11-05 14:53:00
9:53 AM,57.0,55.0,93,29.92,7.0,SSE,12.7,-,N/A,,Overcast,160,2013-11-05 15:53:00
10:53 AM,57.9,55.9,93,29.89,5.0,SSE,16.1,-,0.08,Rain,Rain,160,2013-11-05 16:53:00
11:13 AM,59.0,55.4,88,29.89,10.0,South,15.0,-,0.01,Rain,Light Rain,170,2013-11-05 17:13:00
11:53 AM,59.0,55.9,90,29.87,10.0,South,15.0,21.9,0.01,,Overcast,170,2013-11-05 17:53:00
12:53 PM,60.1,55.9,86,29.85,10.0,SSW,12.7,19.6,0.00,Rain,Light Rain,200,2013-11-05 18:53:00
1:53 PM,60.1,55.9,86,29.82,4.0,South,16.1,24.2,0.07,Rain,Rain,180,2013-11-05 19:53:00
2:39 PM,60.8,57.2,88,29.80,10.0,South,13.8,20.7,0.05,,Mostly Cloudy,180,2013-11-05 20:39:00
2:53 PM,60.1,57.0,90,29.80,10.0,South,12.7,24.2,0.05,,Overcast,180,2013-11-05 20:53:00
3:53 PM,61.0,57.0,87,29.81,10.0,South,13.8,-,0.00,Rain,Light Rain,190,2013-11-05 21:53:00
4:16 PM,60.8,57.2,88,29.82,10.0,South,11.5,19.6,0.00,Rain,Light Rain,190,2013-11-05 22:16:00
4:30 PM,53.6,48.2,82,29.84,2.5,NW,18.4,31.1,0.07,Rain,Light Rain,310,2013-11-05 22:30:00
4:35 PM,51.8,48.2,88,29.85,4.0,WNW,20.7,-,0.08,Rain,Light Rain,300,2013-11-05 22:35:00
4:53 PM,52.0,48.9,89,29.86,9.0,WNW,11.5,-,0.08,Rain,Light Rain,300,2013-11-05 22:53:00
5:31 PM,50.0,46.4,87,29.89,10.0,NW,18.4,25.3,0.00,,Overcast,310,2013-11-05 23:31:00
5:53 PM,50.0,46.0,86,29.90,10.0,NW,18.4,24.2,0.00,Rain,Light Rain,310,2013-11-05 23:53:00
6:53 PM,45.0,42.1,90,29.95,10.0,NW,21.9,28.8,0.02,,Overcast,310,2013-11-06 00:53:00
7:53 PM,42.1,39.0,89,29.98,10.0,NW,23.0,32.2,0.00,,Overcast,310,2013-11-06 01:53:00
8:53 PM,41.0,37.0,86,30.04,10.0,NNW,17.3,-,N/A,,Overcast,330,2013-11-06 02:53:00
9:53 PM,39.9,36.0,86,30.06,10.0,NNW,21.9,31.1,N/A,,Overcast,340,2013-11-06 03:53:00
10:53 PM,39.0,35.1,86,30.10,10.0,NNW,17.3,-,N/A,,Overcast,330,2013-11-06 04:53:00
11:42 PM,39.2,33.8,81,30.09,10.0,NNW,23.0,29.9,N/A,,Overcast,340,2013-11-06 05:42:00
11:53 PM,39.0,34.0,82,30.10,10.0,NNW,18.4,-,N/A,,Overcast,340,2013-11-06 05:53:00